CELTEE 1

Last updated on Sun Dec 14 2025 00:03:50 GMT+0000 (Coordinated Universal Time)

1 41850U 16067C 25346.53500581 .00010594 00000+0 53581-3 0 9998 2 41850 98.0878 195.3852 0001852 110.5237 249.6194 15.17244592497553
UTC large
Height (km)
Speed (km/s)
/
Latitude / Longitude
Inclination (degrees)
Orbital Period (minutes)
Azimuth
Elevation
Range (km)
Doppler Factor

Next 0 passes for location: London (51.5072 / 0.1276)

Sorry there are no passes over London.